Weather in Gosport

United Kingdom     50°47′51″N   1°07′24″W
temp.,
°C
wind,
m/s
gust,
m/s
humid.,
%
clouds,
%
prec.,
mm/h
press.,
hPa
HPBL,
m
15 may, sat
sat1501:00+9s4690100 0.0 1006318
04:00+9s8991100 1.1 1003560
07:00+9se91192100 4.3 1001723
10:00+11wsw578310 0.9 999415
13:00+12wsw8107411 1.4 1000621
16:00+12wsw10138232 0.4 1000597
19:00+11wsw1014867 0.8 1000518
22:00+10wsw813883 0.3 1001492
16 may, sun
sun1601:00+10wsw7118953 0.9 1001514
04:00+9wsw6108957 0.6 1000479
07:00+10sw6987100 1.1 1000621
10:00+10wsw6986100 1.1 1000690
13:00+11sw8108399 1.9 999639
16:00+11sw81194100 3.1 997714
19:00+11w689220 7.4 996300
22:00+10w6119015 0.4 999275
17 may, mon
mon1701:00+9w610915 0.4 1000364
04:00+9w69914 0.0 1001323
07:00+9w57905 0.0 1003291
10:00+11w46827 0.0 1004447
13:00+12sw678094 0.6 1005366
16:00+12wsw5787100 0.9 1006226
19:00+12wnw71082100 3.4 1006229
22:00+10wnw61190100 1.4 1009362
18 may, tue
tue1801:00+8wnw699199 1.4 1011265
04:00+8w598992 0.0 1012288
07:00+9w5988100 0.0 1014392
10:00+11wnw578066 0.2 1015588
13:00+13w796411 0.9 1016647
16:00+12wsw810755 0.4 1017666
19:00+11wsw8118532 0.9 1017461
22:00+10wsw6108696 0.9 1018293
19 may, wed
wed1901:00+9w610870 0.9 1018463
04:00+9w71189100 0.0 1018519
07:00+9w7118674 0.0 1018648
10:00+11w8108322 0.3 1019826
13:00+12w8117935 1.1 1019600
16:00+13wsw8977100 0.4 1020526
19:00+12wsw81183100 0.6 1020350
22:00+11wsw71087100 0.0 1019347